Regional Weather Roundup
Issued by NWS Sioux Falls, SD

Home | Current Version | Previous Version | Text Only | Print | Product List | Glossary On
Versions: 1 2 3 4 5 6 7 8 9 10 11 12 13 14 15 16 17 18 19 20 21 22 23 24 25 26 27 28 29 30 31 32 33 34 35 36 37 38 39 40 41 42 43 44 45 46 47 48 49 50
585
ASUS43 KFSD 232002
RWRFSD

WEATHER ROUNDUP FOR SE SOUTH DAKOTA/SW MINNESOTA/NW IOWA
NATIONAL WEATHER SERVICE SIOUX FALLS SD
300 PM CDT SAT JUL 23 2016

NOTE: "FAIR" INDICATES FEW OR NO CLOUDS BELOW 12,000 FEET WITH NO
SIGNIFICANT WEATHER AND OR OBSTRUCTIONS TO VISIBILITY.


SDZ038>040-050-052>070-232100-
SOUTHEAST SOUTH DAKOTA

CITY           SKY/WX    TMP DP  RH WIND       PRES   REMARKS
BROOKINGS      MOSUNNY   87  74  64 S13G22    29.77  HX  95
CHAMBERLAIN    SUNNY     99  69  37 W9G22     29.73F HX 106
HURON          SUNNY     92  70  48 SW12      29.72S HX  97
MADISON        FAIR      86  75  70 S14       29.78F HX  95
MITCHELL       SUNNY     93  70  46 SW9G21    29.74R HX  99
SIOUX FALLS    MOSUNNY   90  73  57 S12       29.77F HX  98
WINNER         FAIR     100  61  27 NW18G25   29.77S HX 101
YANKTON        SUNNY     93  72  49 S10G17    29.73S HX 100
$$

MNZ071-072-080-081-089-090-097-098-232100-
SOUTHWEST MINNESOTA

CITY           SKY/WX    TMP DP  RH WIND       PRES   REMARKS
FAIRMONT       CLOUDY    82  73  74 SE16      29.81S
JACKSON        CLOUDY    86  73  66 S14       29.83S
LUVERNE        CLOUDY    88  72  58 S7        29.79F
MARSHALL       CLOUDY    87  75  67 S8        29.78S HX  96
MONTEVIDEO     CLOUDY    81  73  78 SE18      29.81F
REDWOOD FALLS  PTSUNNY   83  75  77 E9        29.80F
TRACY          CLOUDY    88  78  72 S12       29.80R HX 101
WINDOM         CLOUDY    84  73  70 SE9       29.82F
WORTHINGTON    MOSUNNY   86  77  74 MISG      29.81F HX  97
$$

IAZ001>003-012>014-020>022-031-032-NEZ013-014-SDZ071-232100-
NORTHWEST IOWA

CITY           SKY/WX    TMP DP  RH WIND       PRES   REMARKS
CHEROKEE       MOSUNNY   87  77  74 S13       29.82S HX  98
DENISON        CLOUDY    86  75  70 S13G20    29.82R HX  95
ESTHERVILLE    CLOUDY    83  76  79 S17G28    29.82F
LE MARS        SUNNY     90  79  70 S13G21    29.79F HX 105
SHELDON        CLOUDY    86  79  79 S13G21    29.79F HX  99
SIOUX CITY     SUNNY     93  76  57 S14       29.78S HX 105
SPENCER        CLOUDY    85  75  72 S16G24    29.82F
STORM LAKE       N/A     84  77  79 S13G21    29.84F
$$

ABBREVIATIONS USED IN REMARKS
   TC - TEMPERATURE IN CELSIUS
  WCI - WIND CHILL INDEX
   HX - HEAT INDEX
  VSB - VISIBILITY





USA.gov is the U.S. government's official web portal to all federal, state and local government web resources and services.